• In Uzbekistan
  • List of Countries
  • For 7 days
  • Water Temperature
  • Satellite Maps
  • Weather Map
  • Weather Widgets
  • user-avatar
    Login

    Hourly Weather Kapan

    Today, 24 May, Friday

    Time Temperature Precipitation Wind Pressure Humidity
    00:00 +17°C° 0 mm 2 mps 683 mmHg 76%
    01:00 +17°C° 0 mm 2 mps 683 mmHg 75%
    02:00 +16°C° 0 mm 2 mps 683 mmHg 75%
    03:00 +16°C° 0 mm 2 mps 683 mmHg 75%
    04:00 +17°C° 0 mm 2 mps 683 mmHg 72%
    05:00 +18°C° 0 mm 2 mps 684 mmHg 69%
    06:00 +19°C° 0 mm 2 mps 684 mmHg 65%
    07:00 +21°C° 0 mm 2 mps 684 mmHg 58%
    08:00 +24°C° 0 mm 2 mps 684 mmHg 50%
    09:00 +27°C° 0 mm 3 mps 685 mmHg 42%
    10:00 +28°C° 0.1 mm 3 mps 685 mmHg 38%
    11:00 +29°C° 0.1 mm 3 mps 684 mmHg 35%
    12:00 +30°C° 0.1 mm 3 mps 684 mmHg 32%
    13:00 +30°C° 0.1 mm 3 mps 684 mmHg 33%
    14:00 +30°C° 0.1 mm 3 mps 684 mmHg 34%
    15:00 +30°C° 0.1 mm 3 mps 684 mmHg 36%
    16:00 +28°C° 0.3 mm 3 mps 684 mmHg 42%
    17:00 +27°C° 0.3 mm 3 mps 683 mmHg 48%
    18:00 +25°C° 0.3 mm 2 mps 683 mmHg 54%
    19:00 +23°C° 0.1 mm 2 mps 683 mmHg 61%
    20:00 +20°C° 0.1 mm 2 mps 684 mmHg 68%
    21:00 +19°C° 0.1 mm 1 mps 684 mmHg 75%
    22:00 +19°C° 0.1 mm 1 mps 684 mmHg 73%
    23:00 +19°C° 0.1 mm 1 mps 684 mmHg 72%

    Tomorrow, 25 May, Saturday

    Time Temperature Precipitation Wind Pressure Humidity
    00:00 +19°C° 0.1 mm 1 mps 684 mmHg 70%
    01:00 +19°C° 0 mm 1 mps 684 mmHg 68%
    02:00 +19°C° 0 mm 1 mps 684 mmHg 66%
    03:00 +18°C° 0 mm 2 mps 684 mmHg 63%
    04:00 +19°C° 0 mm 2 mps 685 mmHg 60%
    05:00 +21°C° 0 mm 1 mps 685 mmHg 57%
    06:00 +22°C° 0 mm 1 mps 685 mmHg 53%
    07:00 +24°C° 0 mm 2 mps 686 mmHg 47%
    08:00 +27°C° 0 mm 2 mps 686 mmHg 41%
    09:00 +29°C° 0 mm 2 mps 686 mmHg 35%
    10:00 +30°C° 0 mm 3 mps 686 mmHg 32%
    11:00 +33°C° 0 mm 3 mps 686 mmHg 28%
    12:00 +35°C° 0 mm 4 mps 686 mmHg 24%
    13:00 +34°C° 0.1 mm 3 mps 685 mmHg 28%
    14:00 +33°C° 0.1 mm 3 mps 685 mmHg 32%
    15:00 +33°C° 0.1 mm 3 mps 684 mmHg 36%
    16:00 +29°C° 0.5 mm 2 mps 684 mmHg 46%
    17:00 +27°C° 0.5 mm 2 mps 683 mmHg 57%
    18:00 +24°C° 0.5 mm 1 mps 683 mmHg 68%
    19:00 +24°C° 0.8 mm 2 mps 683 mmHg 69%
    20:00 +23°C° 0.8 mm 2 mps 683 mmHg 69%
    21:00 +21°C° 0.8 mm 2 mps 684 mmHg 70%
    22:00 +20°C° 0 mm 2 mps 683 mmHg 67%
    23:00 +20°C° 0 mm 3 mps 683 mmHg 64%

    Day after tomorrow, 26 May, Sunday

    Time Temperature Precipitation Wind Pressure Humidity
    00:00 +20°C° 0 mm 3 mps 683 mmHg 61%
    01:00 +20°C° 0 mm 3 mps 683 mmHg 57%
    02:00 +20°C° 0 mm 3 mps 683 mmHg 53%
    03:00 +20°C° 0 mm 3 mps 683 mmHg 49%
    04:00 +21°C° 0.1 mm 2 mps 683 mmHg 49%
    05:00 +21°C° 0.1 mm 2 mps 683 mmHg 49%
    06:00 +23°C° 0.1 mm 1 mps 684 mmHg 49%
    07:00 +25°C° 0 mm 2 mps 684 mmHg 44%
    08:00 +27°C° 0 mm 2 mps 684 mmHg 38%
    09:00 +30°C° 0 mm 3 mps 685 mmHg 33%
    10:00 +31°C° 0 mm 3 mps 685 mmHg 30%
    11:00 +34°C° 0 mm 4 mps 684 mmHg 27%
    12:00 +35°C° 0 mm 5 mps 684 mmHg 25%
    13:00 +33°C° 0.4 mm 4 mps 684 mmHg 33%
    14:00 +30°C° 0.4 mm 4 mps 683 mmHg 41%
    15:00 +29°C° 0.4 mm 3 mps 682 mmHg 49%
    16:00 +27°C° 0.8 mm 3 mps 682 mmHg 54%
    17:00 +26°C° 0.8 mm 3 mps 682 mmHg 59%
    18:00 +25°C° 0.8 mm 3 mps 682 mmHg 64%
    19:00 +23°C° 0.4 mm 2 mps 682 mmHg 70%
    20:00 +22°C° 0.4 mm 1 mps 682 mmHg 76%
    21:00 +20°C° 0.4 mm 1 mps 682 mmHg 81%
    22:00 +19°C° 0 mm 1 mps 683 mmHg 81%
    23:00 +19°C° 0 mm 1 mps 683 mmHg 82%

    27 May, Monday

    Time Temperature Precipitation Wind Pressure Humidity
    00:00 +17°C° 0 mm 0 mps 683 mmHg 82%
    01:00 +18°C° 0 mm 1 mps 683 mmHg 83%
    02:00 +18°C° 0 mm 1 mps 683 mmHg 83%
    03:00 +18°C° 0 mm 1 mps 683 mmHg 84%
    04:00 +18°C° 0 mm 1 mps 684 mmHg 82%
    05:00 +19°C° 0 mm 1 mps 684 mmHg 79%
    06:00 +18°C° 0 mm 0 mps 685 mmHg 77%
    07:00 +21°C° 0 mm 1 mps 685 mmHg 70%
    08:00 +23°C° 0 mm 2 mps 685 mmHg 63%
    09:00 +24°C° 0 mm 2 mps 686 mmHg 57%
    10:00 +25°C° 0.2 mm 3 mps 686 mmHg 53%
    11:00 +26°C° 0.2 mm 3 mps 686 mmHg 50%
    12:00 +27°C° 0.2 mm 4 mps 686 mmHg 46%
    13:00 +27°C° 0.5 mm 4 mps 686 mmHg 47%
    14:00 +27°C° 0.5 mm 4 mps 685 mmHg 48%
    15:00 +27°C° 0.5 mm 4 mps 685 mmHg 49%
    16:00 +26°C° 0.6 mm 4 mps 685 mmHg 54%
    17:00 +25°C° 0.6 mm 3 mps 685 mmHg 58%
    18:00 +24°C° 0.6 mm 3 mps 685 mmHg 62%
    19:00 +21°C° 0.3 mm 2 mps 686 mmHg 70%
    20:00 +19°C° 0.3 mm 2 mps 686 mmHg 78%
    21:00 +18°C° 0.3 mm 1 mps 686 mmHg 86%
    22:00 +18°C° 0.1 mm 1 mps 686 mmHg 87%
    23:00 +18°C° 0.1 mm 1 mps 687 mmHg 88%

    28 May, Tuesday

    Time Temperature Precipitation Wind Pressure Humidity
    00:00 +18°C° 0.1 mm 1 mps 687 mmHg 89%
    01:00 +16°C° 0.1 mm 1 mps 687 mmHg 89%
    02:00 +16°C° 0.1 mm 1 mps 687 mmHg 89%
    03:00 +16°C° 0.1 mm 1 mps 687 mmHg 89%
    04:00 +16°C° 0 mm 1 mps 687 mmHg 86%
    05:00 +18°C° 0 mm 1 mps 688 mmHg 84%
    06:00 +19°C° 0 mm 1 mps 688 mmHg 81%
    07:00 +19°C° 0 mm 2 mps 688 mmHg 76%
    08:00 +20°C° 0 mm 2 mps 688 mmHg 70%
    09:00 +21°C° 0 mm 3 mps 689 mmHg 65%
    10:00 +22°C° 0 mm 3 mps 688 mmHg 62%
    11:00 +24°C° 0 mm 3 mps 688 mmHg 59%
    12:00 +24°C° 0 mm 3 mps 688 mmHg 56%
    13:00 +25°C° 0.1 mm 3 mps 688 mmHg 55%
    14:00 +25°C° 0.1 mm 3 mps 687 mmHg 53%
    15:00 +25°C° 0.1 mm 4 mps 687 mmHg 52%
    16:00 +24°C° 0.1 mm 3 mps 687 mmHg 55%
    17:00 +22°C° 0.1 mm 3 mps 687 mmHg 59%
    18:00 +21°C° 0.1 mm 3 mps 687 mmHg 62%
    19:00 +20°C° 0 mm 2 mps 687 mmHg 69%
    20:00 +18°C° 0 mm 2 mps 688 mmHg 76%
    21:00 +18°C° 0 mm 1 mps 688 mmHg 82%
    22:00 +16°C° 0 mm 1 mps 688 mmHg 83%
    23:00 +16°C° 0 mm 1 mps 688 mmHg 85%

    29 May, Wednesday

    Time Temperature Precipitation Wind Pressure Humidity
    00:00 +16°C° 0 mm 1 mps 688 mmHg 86%
    01:00 +15°C° 0 mm 1 mps 688 mmHg 86%
    02:00 +15°C° 0 mm 1 mps 687 mmHg 85%
    03:00 +15°C° 0 mm 1 mps 687 mmHg 85%
    04:00 +16°C° 0 mm 1 mps 688 mmHg 81%
    05:00 +18°C° 0 mm 1 mps 688 mmHg 77%
    06:00 +18°C° 0 mm 1 mps 688 mmHg 73%
    07:00 +19°C° 0 mm 2 mps 688 mmHg 66%
    08:00 +21°C° 0 mm 2 mps 689 mmHg 59%
    09:00 +23°C° 0 mm 2 mps 689 mmHg 52%
    10:00 +24°C° 0 mm 3 mps 688 mmHg 49%
    11:00 +25°C° 0 mm 3 mps 688 mmHg 47%
    12:00 +26°C° 0 mm 3 mps 688 mmHg 44%
    13:00 +26°C° 0 mm 3 mps 688 mmHg 44%
    14:00 +26°C° 0 mm 3 mps 687 mmHg 43%
    15:00 +26°C° 0 mm 3 mps 687 mmHg 43%
    16:00 +25°C° 0.3 mm 3 mps 687 mmHg 46%
    17:00 +25°C° 0.3 mm 3 mps 686 mmHg 49%
    18:00 +24°C° 0.3 mm 2 mps 686 mmHg 51%
    19:00 +21°C° 0.3 mm 2 mps 686 mmHg 57%
    20:00 +19°C° 0.3 mm 2 mps 686 mmHg 63%
    21:00 +18°C° 0.3 mm 1 mps 686 mmHg 68%
    22:00 +16°C° 0.1 mm 1 mps 686 mmHg 70%
    23:00 +16°C° 0.1 mm 1 mps 686 mmHg 72%
    Show more